Location: Dover
(39.1580°N, 75.5250°W)
Time: 03:50:43
(UTC-04:00)

SeaSat 1 - Visible Passes

Search period start: 24 April 2014 00:00
Search period end: 04 May 2014 00:00
Orbit: 748 x 749 km, 108.0° (Epoch: 23 April)

Date Brightness Start Highest point End Pass type
(mag) Time Alt. Az. Time Alt. Az. Time Alt. Az.
24 Apr 5.1 02:13:08 10° E 02:13:14 10° E 02:13:14 10° E visible
24 Apr 2.3 03:47:34 10° NNE 03:52:32 85° WNW 03:53:05 71° SW visible
24 Apr 4.5 05:27:11 10° NNW 05:29:22 13° NW 05:31:33 10° WNW visible
25 Apr 3.6 03:06:33 10° NE 03:10:56 36° ESE 03:10:56 36° ESE visible
25 Apr 3.5 04:44:16 10° N 04:48:30 30° NW 04:50:46 21° W visible
26 Apr 4.9 02:27:10 10° ENE 02:28:46 13° E 02:28:46 13° E visible
26 Apr 2.4 04:02:25 10° NNE 04:07:21 75° WNW 04:08:37 50° SW visible
26 Apr 4.6 05:42:29 10° NNW 05:44:07 12° NW 05:45:45 10° WNW visible
27 Apr 3.3 03:21:17 10° NE 03:25:56 41° ESE 03:26:28 39° SE visible
27 Apr 3.7 04:59:13 10° N 05:03:17 27° NW 05:06:19 15° WSW visible
28 Apr 4.7 02:41:29 10° ENE 02:44:15 15° ESE 02:44:20 15° ESE visible
28 Apr 2.5 04:17:16 10° NNE 04:22:10 66° WNW 04:24:11 35° SW visible
29 Apr 3.1 03:36:01 10° NE 03:40:47 46° ESE 03:42:02 38° SSE visible
29 Apr 3.8 05:14:10 10° N 05:18:04 24° NW 05:21:53 10° WSW visible
30 Apr 4.5 02:55:56 10° ENE 02:59:08 17° ESE 02:59:54 17° ESE visible
30 Apr 2.6 04:32:08 10° NNE 04:36:59 58° WNW 04:39:45 25° SW visible
01 May 3.0 03:50:47 10° NE 03:55:37 53° ESE 03:57:37 32° S visible
01 May 4.0 05:29:09 10° N 05:32:49 21° NW 05:36:29 10° W visible
02 May 4.4 03:10:27 10° ENE 03:14:00 20° ESE 03:15:29 17° SE visible
02 May 2.8 04:47:00 10° NNE 04:51:46 51° WNW 04:55:20 17° SW visible
03 May 2.8 04:05:33 10° NNE 04:10:27 61° ESE 04:13:12 25° S visible
